GFSSE_sfc_30mbdewp_117.txt.gz
Dewpoint
67 71 71 72 72 72 71 71 71 71 71 71 71 71 71 70 70 71 72 72 73 73 73 72 72 71 70 70 69 68 69 69 69 70 70 70 70 70 70 70 69 69 70
68 70 71 71 72 72 71 70 71 71 71 71 71 71 71 70 70 71 71 72 73 73 72 72 72 71 70 70 70 68 68 69 70 69 69 70 70 69 69 69 68 69 70
68 70 70 71 72 72 72 71 71 71 72 72 72 72 71 70 71 71 71 71 72 72 72 72 71 71 71 70 70 69 68 69 70 69 70 69 70 69 68 67 69 69 69
68 69 70 71 71 72 72 72 71 71 72 72 72 72 71 70 71 71 71 72 72 72 72 71 71 71 71 72 71 70 69 69 68 69 70 68 67 69 69 69 69 69 70
68 68 69 70 71 71 72 72 71 71 71 72 72 72 71 71 71 71 71 71 71 72 72 71 71 71 71 71 69 69 69 69 68 68 67 67 67 69 69 69 69 69 68
67 68 69 70 70 71 72 72 72 71 71 71 72 72 71 71 71 70 70 70 71 72 72 71 71 71 71 69 68 68 69 68 68 67 66 65 65 66 68 68 69 69 68
68 69 69 69 70 71 72 72 72 71 71 71 71 72 71 71 71 70 70 70 71 72 71 71 71 70 68 68 68 68 68 68 68 65 65 64 63 66 66 67 68 68 68
69 69 69 69 69 70 71 72 72 71 71 70 71 71 71 71 71 70 70 70 71 71 71 71 71 70 68 67 68 68 68 68 68 64 64 62 60 66 65 66 68 68 67
70 69 69 69 70 70 70 71 71 71 71 70 71 71 71 71 71 70 70 70 71 71 71 71 71 70 69 67 67 67 67 68 67 64 64 63 61 65 66 66 67 67 67
70 70 69 69 69 69 69 70 70 71 71 71 71 71 71 71 71 70 70 70 71 71 70 70 70 70 68 67 67 67 67 67 67 66 65 63 62 67 65 67 67 67 66
67 71 70 69 68 69 68 69 70 70 70 71 71 70 70 71 71 70 70 70 70 70 70 70 70 69 68 67 67 67 67 67 66 65 65 65 66 65 65 67 67 66 66
66 68 70 69 69 68 68 68 68 69 69 70 71 70 70 70 70 70 69 69 69 69 69 69 69 69 68 67 67 67 66 66 65 64 65 65 65 65 65 67 66 66 65
57 67 70 70 70 69 68 68 68 68 68 69 69 70 70 70 70 68 69 68 68 68 69 69 69 68 67 66 66 66 66 66 65 65 64 63 64 65 64 66 67 66 65
38 67 69 70 69 70 69 68 67 67 67 67 67 69 69 68 69 68 68 68 68 68 68 68 68 68 67 66 65 66 66 65 64 65 65 64 61 65 66 67 67 67 65
30 67 68 69 68 68 68 69 68 67 67 67 67 67 68 66 66 67 67 67 67 68 67 67 67 67 67 66 65 65 65 64 64 65 64 63 64 65 66 67 66 66 66
37 53 49 66 68 68 67 67 68 68 68 67 67 67 68 67 66 66 66 66 67 67 67 66 66 66 66 65 65 65 64 64 64 64 64 64 63 64 66 67 66 66 65
47 50 49 51 52 52 63 65 66 67 67 67 67 67 68 67 66 65 66 65 66 67 66 66 65 64 64 64 64 64 64 64 64 64 64 63 63 63 64 65 66 66 66
47 49 50 52 54 54 54 56 61 66 66 65 65 67 67 68 67 66 64 65 64 66 66 66 65 64 63 63 63 63 63 64 64 64 64 64 63 63 63 64 64 65 65
48 48 49 50 51 51 52 54 55 54 52 60 66 67 66 66 67 66 66 65 65 65 66 65 65 63 62 62 63 63 64 63 63 63 63 63 62 62 62 61 63 64 63
46 46 46 48 48 49 51 52 52 53 52 55 62 65 65 66 65 66 65 65 65 65 65 65 64 64 62 62 63 63 63 63 63 63 63 63 62 62 61 60 60 61 62
44 44 44 45 45 46 46 47 47 49 50 53 54 55 56 65 65 64 66 66 66 64 63 65 64 63 63 63 62 61 62 62 62 62 62 62 62 62 62 62 61 60 60
43 43 43 43 44 45 45 45 47 48 50 50 53 54 55 55 61 65 65 65 65 65 63 64 64 62 63 63 60 59 57 59 61 62 62 62 62 62 61 62 61 61 61
41 42 42 42 42 43 44 44 45 45 47 48 48 49 51 52 55 60 64 63 65 64 64 63 63 63 62 63 61 58 55 54 57 60 61 61 61 61 61 61 61 61 61
39 40 40 40 40 41 41 41 42 43 43 45 45 46 47 48 50 53 57 62 63 63 63 64 64 63 63 61 61 59 56 55 53 52 59 61 61 61 60 61 61 61 61
37 38 39 39 39 39 39 39 39 40 41 42 43 43 44 46 48 49 53 56 62 63 63 63 63 63 63 61 60 60 58 57 56 55 54 58 60 60 61 61 61 61 61
36 36 37 36 37 37 37 37 37 37 37 38 39 40 41 44 46 48 50 53 58 62 63 63 62 62 63 62 60 59 59 57 56 56 54 55 57 59 60 61 61 61 61

GFSSE_sfc_30mbdewp_123.txt.gz
Dewpoint
68 69 71 72 72 72 71 70 69 69 70 70 70 71 73 73 73 73 73 73 73 73 72 72 71 71 69 68 68 68 69 69 69 70 70 70 70 70 69 70 70 69 69
69 71 71 72 72 72 71 71 70 70 70 71 71 71 71 72 72 73 73 73 73 73 72 72 71 71 69 68 67 68 68 69 69 69 70 69 69 69 69 69 69 69 70
68 71 71 71 71 72 71 71 71 70 71 71 71 71 71 71 72 72 73 73 73 73 72 71 70 70 70 69 67 67 68 69 69 68 69 69 69 69 69 69 69 69 69
69 71 71 71 71 71 71 71 71 71 71 71 70 70 71 71 72 72 73 73 73 72 71 70 70 70 70 69 68 68 68 68 68 68 68 68 67 67 66 67 69 69 69
69 70 71 71 71 71 70 71 71 71 71 71 70 70 70 71 71 72 72 72 73 73 71 70 70 71 70 70 69 68 68 68 68 68 67 66 66 66 65 66 69 69 69
68 69 70 71 71 71 70 70 71 71 71 71 70 70 70 70 71 71 71 71 72 72 71 70 72 71 70 69 68 68 68 68 67 66 65 66 63 63 66 67 68 69 68
67 68 69 70 71 71 70 70 70 71 70 70 70 70 70 71 71 70 70 71 72 72 72 72 71 70 69 68 68 68 68 67 66 65 65 66 64 65 66 67 66 67 68
67 68 69 70 70 71 71 71 70 70 70 70 70 70 70 70 70 70 70 70 71 72 71 71 70 70 68 68 67 67 68 68 66 64 64 65 65 66 66 67 66 68 68
68 68 68 69 70 70 70 71 70 70 70 70 70 70 70 69 69 69 69 70 71 71 70 70 70 68 67 67 67 67 67 68 66 64 63 62 62 66 67 68 67 67 67
68 68 67 68 69 70 70 70 70 70 70 70 70 70 69 69 69 69 69 69 70 71 70 70 70 69 68 67 67 66 67 67 66 65 64 63 64 67 67 68 68 67 67
68 67 68 68 68 69 69 70 70 70 70 69 70 70 69 69 69 69 69 69 69 70 70 70 70 69 68 67 66 66 66 66 66 65 64 65 64 67 67 68 68 67 68
67 67 67 67 67 68 68 69 70 70 70 69 69 69 70 69 69 69 69 68 69 69 70 70 69 69 68 67 66 66 66 65 65 65 65 65 65 65 65 67 68 68 67
65 68 68 67 67 67 67 68 69 69 69 69 70 69 69 68 69 69 69 69 69 69 69 69 69 69 68 67 66 66 66 65 65 65 64 64 64 66 67 67 68 68 67
31 43 60 68 67 67 67 67 67 68 68 68 68 68 68 68 67 68 68 68 68 68 69 69 68 68 68 67 66 65 65 65 65 64 64 64 64 66 67 68 68 68 68
53 63 65 68 68 67 67 67 66 67 67 67 68 68 68 67 67 67 68 68 68 68 68 68 68 67 67 67 66 65 65 65 65 64 64 64 64 65 66 66 66 67 67
55 59 58 61 66 68 67 67 67 66 66 66 66 67 68 68 68 68 68 67 67 67 67 67 67 67 66 66 66 65 65 65 65 64 64 63 63 63 63 64 66 67 67
52 53 52 52 54 55 57 58 59 64 66 66 67 67 67 68 67 67 67 67 67 67 67 67 67 67 66 66 65 65 65 65 65 64 64 63 63 62 63 64 66 66 67
50 49 49 49 49 49 51 52 54 55 56 58 61 63 65 67 68 66 66 66 67 67 67 66 66 66 65 65 64 64 65 65 64 64 64 63 63 62 62 63 65 65 66
46 46 45 46 45 46 46 48 49 49 51 53 55 58 59 61 63 62 61 64 65 65 66 66 66 65 64 64 64 64 64 64 64 64 64 63 63 62 61 61 62 64 65
44 43 43 43 43 44 44 44 46 45 47 48 53 51 55 55 57 61 60 59 59 63 64 65 65 65 64 64 63 63 63 63 64 63 63 63 63 62 62 61 61 62 64
41 41 41 40 40 41 41 41 43 40 44 44 48 46 50 48 49 52 57 58 61 61 60 64 63 64 63 63 61 61 61 62 62 63 63 63 62 62 61 61 60 61 63
39 39 38 39 38 38 39 40 40 40 44 43 42 43 45 44 46 48 49 53 57 58 61 61 63 62 63 62 60 59 56 59 61 61 62 62 62 62 61 61 60 60 61
35 36 36 35 35 36 37 37 37 39 39 40 38 39 40 41 43 44 47 49 51 54 55 57 63 62 60 62 62 58 55 55 57 59 61 61 61 61 61 61 60 59 59
35 34 33 34 34 33 34 35 35 35 35 36 37 38 38 39 41 43 45 46 48 50 52 54 58 62 60 57 61 61 59 57 53 51 58 60 61 61 61 61 61 60 60
32 32 32 32 32 32 32 32 33 33 34 35 35 35 36 38 39 40 42 44 46 47 50 52 54 57 62 58 58 59 58 57 56 52 51 55 60 61 61 61 61 61 60
32 31 30 31 30 30 31 31 31 31 31 32 33 34 35 36 38 38 40 41 42 44 45 48 52 54 59 61 60 58 56 55 54 54 52 51 55 58 61 60 60 60 60

GFSSE_sfc_30mbdewp_129.txt.gz
Dewpoint
63 68 71 72 71 70 70 70 71 72 72 71 71 71 72 72 72 72 72 73 72 72 71 71 70 69 69 69 69 69 69 69 71 71 71 70 69 70 70 70 69 65 68
64 68 71 72 71 70 70 70 71 72 73 72 72 72 72 72 72 72 72 72 72 72 72 71 71 69 68 69 68 69 69 69 70 71 71 70 69 69 69 70 67 67 68
67 69 70 71 71 70 70 70 70 72 73 73 72 72 72 72 72 72 72 72 72 72 72 71 71 70 68 67 68 69 68 69 69 70 70 66 67 69 69 69 69 69 69
69 69 70 71 71 71 70 70 70 71 72 73 73 72 72 72 72 72 72 72 72 73 71 70 71 70 69 67 67 68 68 68 69 70 67 66 66 69 69 69 68 69 68
69 69 70 71 71 71 70 70 70 71 71 72 73 73 72 72 72 72 72 72 72 72 70 71 71 71 69 67 67 68 68 68 69 68 67 67 66 68 68 67 69 69 68
68 69 70 71 71 71 71 70 70 71 70 71 72 73 73 73 72 72 72 72 72 72 71 71 71 71 69 68 68 68 68 68 68 66 66 66 66 67 67 67 67 67 67
67 69 70 70 70 71 71 70 70 70 70 70 70 71 72 73 72 72 72 72 72 72 72 71 71 70 68 68 68 68 67 68 66 66 66 66 66 67 67 66 67 67 67
67 69 69 70 70 70 70 70 70 70 70 70 70 71 71 72 72 71 71 72 72 72 72 71 71 69 68 68 68 67 67 67 65 65 65 65 66 65 66 66 67 68 67
68 69 69 70 70 70 70 70 70 70 70 70 69 70 70 71 71 71 71 71 72 71 71 71 70 69 69 68 67 67 67 67 66 65 65 65 66 66 66 67 67 67 67
68 69 69 69 70 70 70 70 69 69 70 69 70 69 69 70 70 70 70 71 71 71 71 71 70 69 69 68 67 67 67 67 66 65 65 64 64 67 67 67 67 67 67
67 68 68 68 69 69 70 70 70 69 69 69 69 69 69 68 68 68 68 69 71 71 71 70 69 69 68 67 67 66 66 65 65 65 65 64 63 65 66 67 68 67 68
61 67 68 68 68 68 68 69 69 70 70 70 69 70 69 69 68 68 68 69 69 70 70 69 69 68 67 65 65 66 65 65 65 65 65 65 65 65 66 67 68 67 67
42 63 67 68 68 68 67 68 69 69 69 69 70 70 69 69 68 68 68 68 68 68 69 69 69 68 68 67 66 65 65 66 65 66 65 65 65 66 66 68 67 67 67
28 45 64 67 68 68 68 68 68 68 68 68 69 70 69 69 68 67 67 68 68 67 67 69 69 69 69 68 67 66 66 65 64 66 66 65 65 66 66 66 67 66 66
48 58 60 64 64 66 68 68 68 67 67 67 68 68 68 68 68 68 67 67 67 68 67 67 67 68 68 68 67 67 66 65 65 66 66 65 64 64 66 66 67 67 67
49 49 51 52 55 62 66 67 67 67 67 67 67 67 68 68 68 68 68 67 67 67 67 68 67 67 67 67 67 67 67 66 66 66 66 65 64 63 64 66 67 67 67
43 43 43 45 47 50 55 57 60 62 63 64 64 64 66 67 68 67 67 66 67 67 66 67 67 66 67 66 65 66 66 67 66 65 65 65 65 64 63 65 66 65 65
39 38 38 39 41 43 48 51 53 54 57 56 57 59 60 60 60 65 66 65 66 66 66 66 66 65 66 66 65 65 65 66 66 66 65 65 65 65 64 63 64 64 63
35 35 36 37 37 39 41 46 46 48 51 48 50 51 49 49 51 55 61 63 63 62 64 64 61 63 64 64 64 65 65 65 65 65 65 65 65 64 65 64 62 62 63
33 34 34 35 35 36 37 40 42 40 44 42 42 46 43 44 46 47 51 54 59 62 62 61 59 60 64 64 64 64 65 65 65 65 65 65 64 65 65 65 64 63 62
32 32 32 33 33 33 33 34 37 36 42 42 39 40 40 41 43 45 46 49 52 56 59 61 61 61 60 62 61 60 63 64 64 64 65 64 64 64 65 64 64 64 63
32 32 32 31 32 32 32 32 34 36 38 41 36 37 38 39 41 42 44 45 47 49 51 54 59 58 59 60 58 57 54 58 61 63 63 64 64 64 64 63 64 63 64
32 32 31 31 31 32 33 32 32 34 34 34 33 35 36 38 40 41 41 43 44 45 47 49 52 55 56 58 59 57 54 53 56 60 61 61 61 62 62 62 62 63 63
31 31 30 32 32 32 33 32 32 31 31 32 33 34 35 37 38 39 40 41 42 42 43 45 46 50 53 55 58 60 59 57 54 52 57 58 58 58 59 60 61 62 62
32 31 30 31 31 31 31 32 31 31 31 32 32 33 34 35 36 37 39 39 40 41 42 43 44 45 47 51 54 57 57 57 59 56 52 54 58 57 58 56 57 60 62
31 31 31 30 30 30 30 30 31 31 31 31 31 32 32 33 34 35 36 36 37 38 39 40 41 42 44 46 48 52 57 55 55 56 55 53 52 54 57 57 56 58 61

GFSSE_sfc_30mbdewp_135.txt.gz
Dewpoint
60 65 70 70 70 71 71 72 71 70 71 71 72 73 73 73 72 72 73 72 72 72 70 70 71 71 71 70 70 69 69 70 72 71 70 70 70 70 70 69 68 65 70
61 65 70 70 70 71 71 72 71 71 71 71 72 73 73 72 72 72 73 72 73 73 71 70 70 70 69 70 70 69 68 70 71 71 71 69 70 70 69 69 68 67 70
61 66 68 70 70 71 71 71 72 71 71 72 72 72 73 72 72 72 72 72 73 72 71 70 69 69 69 69 69 68 69 69 70 70 70 65 65 69 69 68 67 68 69
62 66 66 70 70 70 70 71 72 72 72 72 72 72 72 72 72 72 72 72 73 72 72 71 70 68 68 68 68 68 68 69 69 69 66 66 65 69 68 68 68 68 68
62 64 69 70 70 70 70 70 71 73 73 72 72 72 72 72 72 72 72 72 72 72 72 71 70 71 68 67 67 67 68 68 68 67 66 64 65 68 69 68 68 68 67
62 65 70 71 70 69 69 70 70 71 72 72 72 72 72 72 72 72 71 71 72 73 72 71 71 71 68 66 66 67 67 68 67 62 61 63 64 68 69 69 66 66 66
61 66 70 71 71 70 69 69 70 70 71 72 72 73 72 72 72 72 71 71 72 73 72 71 71 71 70 67 67 67 67 67 65 63 60 62 65 68 67 68 68 67 67
59 65 70 70 71 71 70 70 69 69 69 70 71 72 72 72 72 72 71 71 72 73 72 71 71 71 70 68 67 67 67 67 63 62 58 61 66 66 67 68 67 67 67
58 62 65 69 70 70 70 70 70 69 69 69 69 71 72 72 71 71 71 71 71 71 72 71 71 71 70 68 68 68 67 66 64 61 59 62 67 66 67 68 67 67 67
51 58 63 67 70 70 70 69 70 70 69 69 69 69 70 71 71 71 71 70 70 70 71 71 71 70 69 68 68 67 67 66 64 61 60 65 66 67 67 68 69 67 67
38 51 57 64 66 70 70 70 69 69 69 69 69 69 69 66 66 68 69 68 69 70 70 70 70 70 69 68 68 67 67 64 61 60 56 66 66 67 66 67 68 67 67
32 37 48 60 64 66 66 68 69 69 69 68 67 67 68 65 64 63 64 67 69 69 69 69 69 69 69 65 66 67 65 61 59 56 60 64 65 66 67 68 68 68 67
41 53 57 61 65 64 61 61 62 61 65 67 69 68 67 67 66 65 65 67 67 68 66 67 67 68 66 65 61 64 62 60 59 56 61 64 65 65 66 67 68 67 67
48 51 53 55 61 65 67 67 66 67 69 68 69 69 69 68 68 67 66 66 67 66 66 64 64 65 65 63 62 61 60 59 57 55 60 64 64 66 66 67 67 68 68
45 47 50 52 56 60 63 65 67 69 69 69 69 68 69 69 68 68 68 66 66 66 66 66 66 65 65 65 64 64 62 62 60 59 57 64 64 65 66 66 66 67 68
42 44 46 48 52 56 59 60 62 62 63 64 62 60 60 60 61 64 68 67 67 67 67 66 66 65 66 66 65 65 64 63 63 64 62 63 64 64 65 66 66 67 68
40 42 42 43 48 51 55 56 58 58 57 58 57 56 56 55 57 58 63 67 66 67 66 66 65 66 66 66 65 65 65 65 65 65 65 64 63 64 64 65 66 67 67
39 39 41 41 43 45 49 51 51 53 52 52 52 52 52 53 54 56 59 62 62 62 65 65 64 60 64 64 64 65 65 66 66 66 65 64 64 62 63 63 64 65 65
37 37 38 39 39 40 42 48 46 47 48 48 47 47 47 48 49 50 52 55 56 59 61 63 63 64 63 63 62 64 64 65 65 64 64 64 64 64 63 63 63 63 64
36 36 36 37 38 36 36 38 41 40 43 44 42 43 44 44 45 47 47 50 51 52 55 58 60 61 63 62 62 61 62 63 64 64 65 64 63 64 64 64 64 63 63
37 36 36 37 38 36 34 33 34 35 38 37 38 39 41 42 44 44 44 45 46 47 49 51 53 57 58 61 61 60 60 61 62 63 65 65 64 63 63 64 64 65 63
37 37 37 37 37 37 36 35 36 35 35 36 35 36 38 40 41 41 44 44 45 45 46 47 49 51 53 56 58 58 56 56 59 61 61 60 58 63 63 63 63 64 63
37 37 36 36 36 37 37 36 36 35 35 34 35 34 37 38 39 40 41 42 43 43 43 45 46 47 47 49 54 56 54 52 53 56 58 60 59 62 63 63 63 63 63
38 38 36 34 33 34 36 35 36 34 33 34 34 35 36 37 37 38 39 40 40 41 41 42 42 45 45 45 46 49 55 57 53 52 54 60 62 62 63 63 63 63 63
34 34 34 33 33 34 35 35 35 34 34 33 34 34 34 34 35 36 38 38 38 38 39 40 41 42 42 43 44 45 46 49 52 55 53 53 57 60 62 62 62 62 62
33 34 33 33 33 34 34 34 34 33 33 33 33 32 32 33 33 34 35 35 35 36 37 37 38 39 39 40 42 42 43 45 44 48 52 53 52 53 59 61 61 61 60